Вернуться в каталог

ONEWEB-0055

АктивенСвязьPO
NORAD 45443·PAYLOAD·🇬🇧 United Kingdom

Запущен Mar 21, 2020 с Baikonur Cosmodrome

Loading…

Ближайшие Пролёты (ближайшие 24 часа)

TLE

СвежийSource: CelesTrak SupGP

Эпоха: Sep 14, 2026, 12:58 UTC

1 45443C 20020V   26257.54076806 -.00000088  00000+0 -24747-3 0  2573
2 45443  87.8981   3.3071 0001796 104.1884   7.0337 13.11416136    14

Отслеживайте ONEWEB-0055 в реальном времени с AllMySat

Download on the App Store